Location: Newark
(30.1000°N, 109.4667°E)
Time: 14:56:31
(UTC+00:00)

Vanguard 1 Rocket - Pass Details

Date: 25 February 2020
Orbit: 650 x 4226 km, 34.3° (Epoch: 08 April)

Event Time Altitude Azimuth Distance (km) Brightness Sun altitude
Rises 15:27:57 0° 222° (SW) 7,723 12.1 -60.8°
Reaches altitude 10° 15:34:16 10° 217° (SW) 6,198 11.5 -61.8°
Enters shadow 15:35:22 12° 215° (SW) 5,923 11.4 -61.9°
